Location: Caltech
(34.1382°N, 118.1253°W)
Time: 16:25:23
(UTC-07:00)

Cosmos 2333 Rocket - Visible Passes

Search period start: 01 September 2014 00:00
Search period end: 11 September 2014 00:00
Orbit: 837 x 864 km, 70.9° (Epoch: 31 August)

Date Brightness Start Highest point End Pass type
(mag) Time Alt. Az. Time Alt. Az. Time Alt. Az.
02 Sep 2.6 06:00:36 10° SSW 06:06:17 74° ESE 06:12:02 10° NNE visible
03 Sep 2.5 05:48:19 10° SSW 05:54:00 74° ESE 05:59:45 10° NNE visible
04 Sep 2.5 05:36:01 10° SSW 05:41:43 74° ESE 05:47:28 10° NNE visible
05 Sep 2.5 05:23:44 10° SSW 05:29:25 74° ESE 05:35:10 10° NNE visible
06 Sep 2.4 05:11:27 10° SSW 05:17:08 74° ESE 05:22:53 10° NNE visible
07 Sep 2.4 04:59:35 12° SSW 05:04:51 74° ESE 05:10:36 10° NNE visible
08 Sep 2.4 04:48:38 21° S 04:52:34 74° ESE 04:58:19 10° NNE visible
09 Sep 2.3 04:37:33 32° S 04:40:16 74° ESE 04:46:01 10° NNE visible
10 Sep 2.3 04:26:22 48° S 04:27:59 74° ESE 04:33:44 10° NNE visible
